contact:dominique.lefevre@mio.osupytheas.fr, maurice.libes@osupytheas.fr, didier.mallarino@osupytheas.fr
Project:EMSO http://www.emso-fr.org/EMSO-France
Depth: 2436.0 m
Title:EMSO Ligure Ouest : Data MII capteur MICROCAT
DateTime_Computer,Latitude,Longitude,Temperature,Conductivity,Pressure,DateTime_Instrument
DateTime_Computer,Latitude,Longitude,degC,S m-1,dbar,DateTime_Instrument
2019-12-24T00:00:49Z,42.805,6.029,13.2990,4.60043,2469.76,2019-12-24T02:01:20Z
2019-12-24T00:03:52Z,42.805,6.029,13.3003,4.60072,2469.797,2019-12-24T02:04:23Z
2019-12-24T00:06:56Z,42.805,6.029,13.2976,4.60079,2469.783,2019-12-24T02:07:26Z
2019-12-24T00:09:59Z,42.805,6.029,13.2986,4.60049,2469.797,2019-12-24T02:10:29Z
2019-12-24T00:13:02Z,42.805,6.029,13.2991,4.60057,2469.797,2019-12-24T02:13:33Z
2019-12-24T00:16:05Z,42.805,6.029,13.2996,4.60059,2469.821,2019-12-24T02:16:36Z
2019-12-24T00:19:08Z,42.805,6.029,13.2979,4.60043,2469.783,2019-12-24T02:19:39Z
2019-12-24T00:22:12Z,42.805,6.029,13.2979,4.60067,2469.773,2019-12-24T02:22:42Z
2019-12-24T00:25:15Z,42.805,6.029,13.2974,4.60046,2469.821,2019-12-24T02:25:46Z
2019-12-24T00:28:18Z,42.805,6.029,13.2991,4.60054,2469.783,2019-12-24T02:28:49Z
2019-12-24T00:31:21Z,42.805,6.029,13.2983,4.60067,2469.773,2019-12-24T02:31:52Z
2019-12-24T00:34:24Z,42.805,6.029,13.2980,4.60033,2469.783,2019-12-24T02:34:55Z
2019-12-24T00:37:28Z,42.805,6.029,13.2984,4.60072,2469.797,2019-12-24T02:37:58Z
2019-12-24T00:40:31Z,42.805,6.029,13.2990,4.60045,2469.783,2019-12-24T02:41:02Z
2019-12-24T00:43:34Z,42.805,6.029,13.3004,4.60041,2469.783,2019-12-24T02:44:05Z
2019-12-24T00:46:37Z,42.805,6.029,13.2992,4.60059,2469.797,2019-12-24T02:47:08Z
2019-12-24T00:49:41Z,42.805,6.029,13.2994,4.60059,2469.821,2019-12-24T02:50:11Z
2019-12-24T00:52:44Z,42.805,6.029,13.2987,4.60024,2469.783,2019-12-24T02:53:14Z
2019-12-24T00:55:47Z,42.805,6.029,13.2992,4.60003,2469.821,2019-12-24T02:56:18Z
2019-12-24T00:58:50Z,42.805,6.029,13.3009,4.60011,2469.821,2019-12-24T02:59:21Z
2019-12-24T01:01:53Z,42.805,6.029,13.2991,4.60029,2469.806,2019-12-24T03:02:24Z
2019-12-24T01:04:57Z,42.805,6.029,13.2987,4.60006,2469.821,2019-12-24T03:05:27Z
2019-12-24T01:08:00Z,42.805,6.029,13.2975,4.60038,2469.797,2019-12-24T03:08:31Z
2019-12-24T01:11:03Z,42.805,6.029,13.2981,4.60054,2469.797,2019-12-24T03:11:34Z
2019-12-24T01:14:06Z,42.805,6.029,13.2976,4.60044,2469.821,2019-12-24T03:14:37Z
2019-12-24T01:17:10Z,42.805,6.029,13.2997,4.60024,2469.806,2019-12-24T03:17:40Z
2019-12-24T01:20:13Z,42.805,6.029,13.3020,4.60031,2469.821,2019-12-24T03:20:44Z
2019-12-24T01:23:16Z,42.805,6.029,13.2987,4.60016,2469.83,2019-12-24T03:23:47Z
2019-12-24T01:26:19Z,42.805,6.029,13.2986,4.60014,2469.821,2019-12-24T03:26:50Z
2019-12-24T01:29:23Z,42.805,6.029,13.2984,4.60039,2469.83,2019-12-24T03:29:53Z
2019-12-24T01:32:26Z,42.805,6.029,13.3012,4.60009,2469.83,2019-12-24T03:32:56Z
2019-12-24T01:35:29Z,42.805,6.029,13.2988,4.60045,2469.844,2019-12-24T03:36:00Z
2019-12-24T01:38:32Z,42.805,6.029,13.2983,4.60016,2469.83,2019-12-24T03:39:03Z
2019-12-24T01:41:35Z,42.805,6.029,13.2991,4.59994,2469.83,2019-12-24T03:42:06Z
2019-12-24T01:44:39Z,42.805,6.029,13.2991,4.59996,2469.83,2019-12-24T03:45:09Z
2019-12-24T01:47:42Z,42.805,6.029,13.2990,4.60011,2469.83,2019-12-24T03:48:13Z
2019-12-24T01:50:45Z,42.805,6.029,13.2994,4.60009,2469.867,2019-12-24T03:51:16Z
2019-12-24T01:53:48Z,42.805,6.029,13.2984,4.59988,2469.876,2019-12-24T03:54:19Z
2019-12-24T01:56:51Z,42.805,6.029,13.2982,4.60025,2469.89,2019-12-24T03:57:22Z
2019-12-24T01:59:55Z,42.805,6.029,13.2991,4.60034,2469.867,2019-12-24T04:00:25Z
2019-12-24T02:02:58Z,42.805,6.029,13.2987,4.60046,2469.9,2019-12-24T04:03:29Z
2019-12-24T02:06:01Z,42.805,6.029,13.2983,4.60014,2469.853,2019-12-24T04:06:32Z
2019-12-24T02:09:04Z,42.805,6.029,13.2984,4.60024,2469.853,2019-12-24T04:09:35Z
2019-12-24T02:12:07Z,42.805,6.029,13.2971,4.60028,2469.9,2019-12-24T04:12:38Z
2019-12-24T02:15:11Z,42.805,6.029,13.2981,4.60028,2469.853,2019-12-24T04:15:41Z
2019-12-24T02:18:14Z,42.805,6.029,13.2982,4.60034,2469.89,2019-12-24T04:18:45Z
2019-12-24T02:21:17Z,42.805,6.029,13.2985,4.60047,2469.876,2019-12-24T04:21:48Z
2019-12-24T02:24:20Z,42.805,6.029,13.2985,4.60021,2469.89,2019-12-24T04:24:51Z
2019-12-24T02:27:24Z,42.805,6.029,13.2977,4.59999,2469.914,2019-12-24T04:27:55Z
2019-12-24T02:30:27Z,42.805,6.029,13.2971,4.60021,2469.876,2019-12-24T04:30:58Z
2019-12-24T02:33:30Z,42.805,6.029,13.2993,4.60033,2469.89,2019-12-24T04:34:01Z
2019-12-24T02:36:34Z,42.805,6.029,13.2970,4.60024,2469.9,2019-12-24T04:37:04Z
2019-12-24T02:39:37Z,42.805,6.029,13.2982,4.60024,2469.9,2019-12-24T04:40:07Z
2019-12-24T02:42:40Z,42.805,6.029,13.2982,4.60038,2469.9,2019-12-24T04:43:11Z
2019-12-24T02:45:43Z,42.805,6.029,13.2982,4.60034,2469.9,2019-12-24T04:46:14Z
2019-12-24T02:48:46Z,42.805,6.029,13.2974,4.60014,2469.937,2019-12-24T04:49:17Z
2019-12-24T02:51:50Z,42.805,6.029,13.2974,4.60006,2469.89,2019-12-24T04:52:20Z
2019-12-24T02:54:53Z,42.805,6.029,13.2983,4.60019,2469.923,2019-12-24T04:55:24Z
2019-12-24T02:57:56Z,42.805,6.029,13.2972,4.60020,2469.923,2019-12-24T04:58:27Z
2019-12-24T03:00:59Z,42.805,6.029,13.2993,4.60029,2469.947,2019-12-24T05:01:30Z
2019-12-24T03:04:02Z,42.805,6.029,13.2976,4.60014,2469.947,2019-12-24T05:04:33Z
2019-12-24T03:07:06Z,42.805,6.029,13.2967,4.59996,2469.923,2019-12-24T05:07:36Z
2019-12-24T03:10:09Z,42.805,6.029,13.2972,4.59997,2469.937,2019-12-24T05:10:40Z
2019-12-24T03:13:12Z,42.805,6.029,13.2971,4.59993,2469.96,2019-12-24T05:13:43Z
2019-12-24T03:16:15Z,42.805,6.029,13.2986,4.60026,2469.947,2019-12-24T05:16:46Z
2019-12-24T03:19:18Z,42.805,6.029,13.2974,4.60014,2469.947,2019-12-24T05:19:49Z
2019-12-24T03:22:22Z,42.805,6.029,13.2978,4.59999,2469.97,2019-12-24T05:22:52Z
2019-12-24T03:25:25Z,42.805,6.029,13.2971,4.59996,2469.947,2019-12-24T05:25:56Z
2019-12-24T03:28:28Z,42.805,6.029,13.2982,4.59997,2469.97,2019-12-24T05:28:59Z
2019-12-24T03:31:31Z,42.805,6.029,13.2978,4.60010,2469.96,2019-12-24T05:32:02Z
2019-12-24T03:34:35Z,42.805,6.029,13.2972,4.59981,2469.96,2019-12-24T05:35:05Z
2019-12-24T03:37:38Z,42.805,6.029,13.2969,4.60006,2469.97,2019-12-24T05:38:09Z
2019-12-24T03:40:41Z,42.805,6.029,13.2969,4.59996,2469.97,2019-12-24T05:41:12Z
2019-12-24T03:43:44Z,42.805,6.029,13.2977,4.60000,2469.947,2019-12-24T05:44:15Z
2019-12-24T03:46:47Z,42.805,6.029,13.2971,4.59986,2469.984,2019-12-24T05:47:18Z
2019-12-24T03:49:51Z,42.805,6.029,13.2985,4.59989,2469.993,2019-12-24T05:50:21Z
2019-12-24T03:52:54Z,42.805,6.029,13.2974,4.59989,2470.007,2019-12-24T05:53:24Z
2019-12-24T03:55:57Z,42.805,6.029,13.2970,4.59988,2470.007,2019-12-24T05:56:28Z
2019-12-24T03:59:00Z,42.805,6.029,13.2971,4.59994,2469.993,2019-12-24T05:59:31Z
2019-12-24T04:02:04Z,42.805,6.029,13.2971,4.59989,2470.007,2019-12-24T06:02:34Z
2019-12-24T04:05:07Z,42.805,6.029,13.2965,4.59989,2469.97,2019-12-24T06:05:37Z
2019-12-24T04:08:10Z,42.805,6.029,13.2967,4.59996,2470.007,2019-12-24T06:08:41Z
2019-12-24T04:11:13Z,42.805,6.029,13.2967,4.59990,2469.993,2019-12-24T06:11:44Z
2019-12-24T04:14:16Z,42.805,6.029,13.2967,4.59988,2469.993,2019-12-24T06:14:47Z
2019-12-24T04:17:19Z,42.805,6.029,13.2974,4.59986,2469.97,2019-12-24T06:17:50Z
2019-12-24T04:20:23Z,42.805,6.029,13.2976,4.59994,2469.993,2019-12-24T06:20:53Z
2019-12-24T04:23:26Z,42.805,6.029,13.2974,4.59994,2469.947,2019-12-24T06:23:57Z
2019-12-24T04:26:29Z,42.805,6.029,13.2976,4.59998,2470.007,2019-12-24T06:27:00Z
2019-12-24T04:29:32Z,42.805,6.029,13.2969,4.60000,2470.017,2019-12-24T06:30:03Z
2019-12-24T04:32:36Z,42.805,6.029,13.2988,4.60006,2470.007,2019-12-24T06:33:06Z
2019-12-24T04:35:39Z,42.805,6.029,13.2979,4.59986,2470.017,2019-12-24T06:36:10Z
2019-12-24T04:38:42Z,42.805,6.029,13.2978,4.60002,2470.017,2019-12-24T06:39:13Z
2019-12-24T04:41:45Z,42.805,6.029,13.2977,4.60007,2470.017,2019-12-24T06:42:16Z
2019-12-24T04:44:48Z,42.805,6.029,13.2980,4.60000,2470.03,2019-12-24T06:45:19Z
2019-12-24T04:47:52Z,42.805,6.029,13.2982,4.60002,2470.03,2019-12-24T06:48:22Z
2019-12-24T04:50:55Z,42.805,6.029,13.2971,4.59994,2470.003,2019-12-24T06:51:26Z
2019-12-24T04:53:58Z,42.805,6.029,13.2969,4.59989,2470.04,2019-12-24T06:54:29Z
2019-12-24T04:57:01Z,42.805,6.029,13.2974,4.60011,2470.04,2019-12-24T06:57:32Z
2019-12-24T05:00:05Z,42.805,6.029,13.2966,4.59985,2470.017,2019-12-24T07:00:35Z
2019-12-24T05:03:08Z,42.805,6.029,13.2976,4.59976,2470.04,2019-12-24T07:03:39Z
2019-12-24T05:06:11Z,42.805,6.029,13.2979,4.60010,2470.03,2019-12-24T07:06:42Z
2019-12-24T05:09:14Z,42.805,6.029,13.2997,4.60002,2470.04,2019-12-24T07:09:45Z
2019-12-24T05:12:17Z,42.805,6.029,13.2976,4.60019,2470.053,2019-12-24T07:12:48Z
2019-12-24T05:15:21Z,42.805,6.029,13.2975,4.60003,2470.04,2019-12-24T07:15:51Z
2019-12-24T05:18:24Z,42.805,6.029,13.2980,4.59992,2470.053,2019-12-24T07:18:55Z
2019-12-24T05:21:27Z,42.805,6.029,13.2976,4.60007,2470.063,2019-12-24T07:21:58Z
2019-12-24T05:24:30Z,42.805,6.029,13.2982,4.60015,2470.053,2019-12-24T07:25:01Z
2019-12-24T05:27:34Z,42.805,6.029,13.2968,4.59994,2470.04,2019-12-24T07:28:04Z
2019-12-24T05:30:37Z,42.805,6.029,13.2968,4.60003,2470.087,2019-12-24T07:31:07Z
2019-12-24T05:33:40Z,42.805,6.029,13.2975,4.59999,2470.077,2019-12-24T07:34:11Z
2019-12-24T05:36:43Z,42.805,6.029,13.2967,4.59993,2470.063,2019-12-24T07:37:14Z
2019-12-24T05:39:46Z,42.805,6.029,13.2982,4.60011,2470.04,2019-12-24T07:40:17Z
2019-12-24T05:42:50Z,42.805,6.029,13.2971,4.60006,2470.063,2019-12-24T07:43:20Z
2019-12-24T05:45:53Z,42.805,6.029,13.2976,4.60018,2470.063,2019-12-24T07:46:24Z
2019-12-24T05:48:56Z,42.805,6.029,13.2965,4.60016,2470.063,2019-12-24T07:49:27Z
2019-12-24T05:51:59Z,42.805,6.029,13.2969,4.60000,2470.077,2019-12-24T07:52:30Z
2019-12-24T05:55:02Z,42.805,6.029,13.2970,4.60008,2470.1,2019-12-24T07:55:33Z
2019-12-24T05:58:06Z,42.805,6.029,13.2973,4.60003,2470.1,2019-12-24T07:58:36Z
2019-12-24T06:01:09Z,42.805,6.029,13.2973,4.60015,2470.063,2019-12-24T08:01:40Z
2019-12-24T06:04:12Z,42.805,6.029,13.2970,4.59998,2470.077,2019-12-24T08:04:43Z
2019-12-24T06:07:15Z,42.805,6.029,13.2967,4.60005,2470.087,2019-12-24T08:07:46Z
2019-12-24T06:10:18Z,42.805,6.029,13.2971,4.59994,2470.077,2019-12-24T08:10:49Z
2019-12-24T06:13:22Z,42.805,6.029,13.2971,4.59979,2470.1,2019-12-24T08:13:52Z
2019-12-24T06:16:25Z,42.805,6.029,13.2976,4.60003,2470.077,2019-12-24T08:16:56Z
2019-12-24T06:19:28Z,42.805,6.029,13.2964,4.59986,2470.087,2019-12-24T08:19:59Z
2019-12-24T06:22:31Z,42.805,6.029,13.2975,4.60005,2470.087,2019-12-24T08:23:02Z
2019-12-24T06:25:35Z,42.805,6.029,13.2969,4.60005,2470.1,2019-12-24T08:26:05Z
2019-12-24T06:28:38Z,42.805,6.029,13.2973,4.59999,2470.063,2019-12-24T08:29:09Z
2019-12-24T06:31:41Z,42.805,6.029,13.2978,4.60000,2470.11,2019-12-24T08:32:12Z
2019-12-24T06:34:45Z,42.805,6.029,13.2974,4.59996,2470.087,2019-12-24T08:35:15Z
2019-12-24T06:37:48Z,42.805,6.029,13.2981,4.59991,2470.11,2019-12-24T08:38:19Z
2019-12-24T06:40:51Z,42.805,6.029,13.2970,4.59995,2470.087,2019-12-24T08:41:22Z
2019-12-24T06:43:54Z,42.805,6.029,13.2979,4.59998,2470.11,2019-12-24T08:44:25Z
2019-12-24T06:46:58Z,42.805,6.029,13.2971,4.59991,2470.087,2019-12-24T08:47:29Z
2019-12-24T06:50:01Z,42.805,6.029,13.2971,4.59996,2470.087,2019-12-24T08:50:32Z
2019-12-24T06:53:04Z,42.805,6.029,13.2974,4.59991,2470.096,2019-12-24T08:53:35Z
2019-12-24T06:56:07Z,42.805,6.029,13.2974,4.60002,2470.063,2019-12-24T08:56:38Z
2019-12-24T06:59:11Z,42.805,6.029,13.2975,4.59993,2470.077,2019-12-24T08:59:41Z
2019-12-24T07:02:14Z,42.805,6.029,13.2979,4.60003,2470.077,2019-12-24T09:02:45Z
2019-12-24T07:05:17Z,42.805,6.029,13.2975,4.59998,2470.087,2019-12-24T09:05:48Z
2019-12-24T07:08:20Z,42.805,6.029,13.2974,4.60009,2470.124,2019-12-24T09:08:51Z
2019-12-24T07:11:23Z,42.805,6.029,13.2967,4.60001,2470.087,2019-12-24T09:11:54Z
2019-12-24T07:14:27Z,42.805,6.029,13.2974,4.59999,2470.124,2019-12-24T09:14:58Z
2019-12-24T07:17:30Z,42.805,6.029,13.2973,4.59999,2470.063,2019-12-24T09:18:01Z
2019-12-24T07:20:33Z,42.805,6.029,13.2971,4.59986,2470.1,2019-12-24T09:21:04Z
2019-12-24T07:23:36Z,42.805,6.029,13.2972,4.59996,2470.087,2019-12-24T09:24:07Z
2019-12-24T07:26:40Z,42.805,6.029,13.2971,4.59991,2470.1,2019-12-24T09:27:10Z
2019-12-24T07:29:43Z,42.805,6.029,13.2975,4.60000,2470.063,2019-12-24T09:30:14Z
2019-12-24T07:32:46Z,42.805,6.029,13.2968,4.59991,2470.087,2019-12-24T09:33:17Z
2019-12-24T07:35:49Z,42.805,6.029,13.2971,4.60006,2470.077,2019-12-24T09:36:20Z
2019-12-24T07:38:52Z,42.805,6.029,13.2970,4.60003,2470.053,2019-12-24T09:39:23Z
2019-12-24T07:41:56Z,42.805,6.029,13.2974,4.59996,2470.087,2019-12-24T09:42:26Z
2019-12-24T07:44:59Z,42.805,6.029,13.2976,4.59994,2470.087,2019-12-24T09:45:30Z
2019-12-24T07:48:02Z,42.805,6.029,13.2968,4.60003,2470.11,2019-12-24T09:48:33Z
2019-12-24T07:51:05Z,42.805,6.029,13.2969,4.59995,2470.077,2019-12-24T09:51:36Z
2019-12-24T07:54:09Z,42.805,6.029,13.2979,4.60002,2470.087,2019-12-24T09:54:39Z
2019-12-24T07:57:12Z,42.805,6.029,13.2974,4.60004,2470.1,2019-12-24T09:57:43Z
2019-12-24T08:00:15Z,42.805,6.029,13.2976,4.60004,2470.1,2019-12-24T10:00:46Z
2019-12-24T08:03:18Z,42.805,6.029,13.2971,4.59996,2470.077,2019-12-24T10:03:49Z
2019-12-24T08:06:21Z,42.805,6.029,13.2974,4.59993,2470.063,2019-12-24T10:06:52Z
2019-12-24T08:09:25Z,42.805,6.029,13.2968,4.59983,2470.087,2019-12-24T10:09:55Z
2019-12-24T08:12:28Z,42.805,6.029,13.2977,4.59991,2470.053,2019-12-24T10:12:59Z
2019-12-24T08:15:31Z,42.805,6.029,13.2974,4.59988,2470.077,2019-12-24T10:16:02Z
2019-12-24T08:18:34Z,42.805,6.029,13.2977,4.60005,2470.063,2019-12-24T10:19:05Z
2019-12-24T08:21:37Z,42.805,6.029,13.2983,4.60008,2470.077,2019-12-24T10:22:08Z
2019-12-24T08:24:41Z,42.805,6.029,13.2979,4.59995,2470.1,2019-12-24T10:25:11Z
2019-12-24T08:27:44Z,42.805,6.029,13.2974,4.60001,2470.1,2019-12-24T10:28:15Z
2019-12-24T08:30:47Z,42.805,6.029,13.2972,4.59989,2470.063,2019-12-24T10:31:18Z
2019-12-24T08:33:51Z,42.805,6.029,13.2982,4.60003,2470.04,2019-12-24T10:34:21Z
2019-12-24T08:36:54Z,42.805,6.029,13.2974,4.59997,2470.063,2019-12-24T10:37:25Z
2019-12-24T08:39:57Z,42.805,6.029,13.2971,4.59992,2470.077,2019-12-24T10:40:28Z
2019-12-24T08:43:00Z,42.805,6.029,13.2969,4.59998,2470.03,2019-12-24T10:43:31Z
2019-12-24T08:46:04Z,42.805,6.029,13.2972,4.59991,2470.017,2019-12-24T10:46:34Z
2019-12-24T08:49:07Z,42.805,6.029,13.2969,4.59991,2470.03,2019-12-24T10:49:38Z
2019-12-24T08:52:10Z,42.805,6.029,13.2971,4.59981,2470.04,2019-12-24T10:52:41Z
2019-12-24T08:55:13Z,42.805,6.029,13.2972,4.59990,2470.063,2019-12-24T10:55:44Z
2019-12-24T08:58:17Z,42.805,6.029,13.2971,4.59986,2470.077,2019-12-24T10:58:47Z
2019-12-24T09:01:20Z,42.805,6.029,13.2976,4.59987,2470.063,2019-12-24T11:01:51Z
2019-12-24T09:04:23Z,42.805,6.029,13.2969,4.59988,2470.063,2019-12-24T11:04:54Z
2019-12-24T09:07:26Z,42.805,6.029,13.2974,4.59985,2470.04,2019-12-24T11:07:57Z
2019-12-24T09:10:29Z,42.805,6.029,13.2973,4.59992,2470.063,2019-12-24T11:11:00Z
2019-12-24T09:13:33Z,42.805,6.029,13.2970,4.59985,2470.04,2019-12-24T11:14:03Z
2019-12-24T09:16:36Z,42.805,6.029,13.2979,4.59990,2470.04,2019-12-24T11:17:07Z
2019-12-24T09:19:39Z,42.805,6.029,13.2974,4.59981,2469.993,2019-12-24T11:20:10Z
2019-12-24T09:22:42Z,42.805,6.029,13.2976,4.60006,2470.017,2019-12-24T11:23:13Z
2019-12-24T09:25:46Z,42.805,6.029,13.2976,4.60002,2470.063,2019-12-24T11:26:16Z
2019-12-24T09:28:49Z,42.805,6.029,13.2974,4.60004,2470.077,2019-12-24T11:29:20Z
2019-12-24T09:31:52Z,42.805,6.029,13.2982,4.60003,2470.077,2019-12-24T11:32:23Z
2019-12-24T09:34:55Z,42.805,6.029,13.2969,4.59991,2470.04,2019-12-24T11:35:26Z
2019-12-24T09:37:58Z,42.805,6.029,13.2967,4.60002,2470.053,2019-12-24T11:38:29Z
2019-12-24T09:41:02Z,42.805,6.029,13.2979,4.59985,2470.017,2019-12-24T11:41:32Z
2019-12-24T09:44:05Z,42.805,6.029,13.2971,4.59981,2470.053,2019-12-24T11:44:36Z
2019-12-24T09:47:08Z,42.805,6.029,13.2974,4.59997,2470.04,2019-12-24T11:47:39Z
2019-12-24T09:50:11Z,42.805,6.029,13.2967,4.59986,2470.053,2019-12-24T11:50:42Z
2019-12-24T09:53:14Z,42.805,6.029,13.2973,4.60009,2470.053,2019-12-24T11:53:45Z
2019-12-24T09:56:18Z,42.805,6.029,13.2974,4.59990,2470.04,2019-12-24T11:56:48Z
2019-12-24T09:59:21Z,42.805,6.029,13.2967,4.59979,2470.04,2019-12-24T11:59:52Z
2019-12-24T10:02:24Z,42.805,6.029,13.2971,4.59991,2470.063,2019-12-24T12:02:55Z
2019-12-24T10:05:27Z,42.805,6.029,13.2971,4.59992,2470.053,2019-12-24T12:05:58Z
2019-12-24T10:08:30Z,42.805,6.029,13.2971,4.60013,2470.017,2019-12-24T12:09:01Z
2019-12-24T10:11:34Z,42.805,6.029,13.2976,4.60009,2470.03,2019-12-24T12:12:04Z
2019-12-24T10:14:37Z,42.805,6.029,13.2967,4.59999,2469.993,2019-12-24T12:15:08Z
2019-12-24T10:17:40Z,42.805,6.029,13.2979,4.59994,2469.993,2019-12-24T12:18:11Z
2019-12-24T10:20:43Z,42.805,6.029,13.2971,4.59992,2470.03,2019-12-24T12:21:14Z
2019-12-24T10:23:46Z,42.805,6.029,13.2974,4.59986,2470.007,2019-12-24T12:24:17Z
2019-12-24T10:26:50Z,42.805,6.029,13.2976,4.59995,2470.03,2019-12-24T12:27:20Z
2019-12-24T10:29:53Z,42.805,6.029,13.2971,4.59985,2469.993,2019-12-24T12:30:24Z
2019-12-24T10:32:56Z,42.805,6.029,13.2974,4.59989,2469.993,2019-12-24T12:33:27Z
2019-12-24T10:36:00Z,42.805,6.029,13.2967,4.59986,2470.04,2019-12-24T12:36:30Z
2019-12-24T10:39:03Z,42.805,6.029,13.2982,4.60015,2470.017,2019-12-24T12:39:34Z
2019-12-24T10:42:06Z,42.805,6.029,13.2967,4.59988,2469.97,2019-12-24T12:42:37Z
2019-12-24T10:45:09Z,42.805,6.029,13.2967,4.59985,2470.03,2019-12-24T12:45:40Z
2019-12-24T10:48:12Z,42.805,6.029,13.2968,4.59984,2469.993,2019-12-24T12:48:43Z
2019-12-24T10:51:16Z,42.805,6.029,13.2967,4.59989,2469.97,2019-12-24T12:51:46Z
2019-12-24T10:54:19Z,42.805,6.029,13.2977,4.59986,2469.97,2019-12-24T12:54:50Z
2019-12-24T10:57:22Z,42.805,6.029,13.2967,4.60002,2470.017,2019-12-24T12:57:53Z
2019-12-24T11:00:25Z,42.805,6.029,13.2977,4.59994,2470.007,2019-12-24T13:00:56Z
2019-12-24T11:03:29Z,42.805,6.029,13.2971,4.59994,2469.993,2019-12-24T13:03:59Z
2019-12-24T11:06:32Z,42.805,6.029,13.2968,4.60004,2470.044,2019-12-24T13:07:03Z
2019-12-24T11:09:35Z,42.805,6.029,13.2974,4.60008,2469.97,2019-12-24T13:10:06Z
2019-12-24T11:12:38Z,42.805,6.029,13.2974,4.59999,2469.97,2019-12-24T13:13:09Z
2019-12-24T11:15:41Z,42.805,6.029,13.2974,4.59988,2469.96,2019-12-24T13:16:12Z
2019-12-24T11:18:44Z,42.805,6.029,13.2974,4.59981,2469.947,2019-12-24T13:19:15Z
2019-12-24T11:21:48Z,42.805,6.029,13.2971,4.59982,2469.993,2019-12-24T13:22:18Z
2019-12-24T11:24:51Z,42.805,6.029,13.2972,4.59996,2469.97,2019-12-24T13:25:22Z
2019-12-24T11:27:54Z,42.805,6.029,13.2974,4.59996,2469.97,2019-12-24T13:28:25Z
2019-12-24T11:30:57Z,42.805,6.029,13.2967,4.59993,2469.96,2019-12-24T13:31:28Z
2019-12-24T11:34:01Z,42.805,6.029,13.2979,4.60011,2469.947,2019-12-24T13:34:31Z
2019-12-24T11:37:04Z,42.805,6.029,13.2971,4.60008,2469.96,2019-12-24T13:37:34Z
2019-12-24T11:40:07Z,42.805,6.029,13.2971,4.60014,2469.97,2019-12-24T13:40:38Z
2019-12-24T11:43:10Z,42.805,6.029,13.2984,4.60013,2469.97,2019-12-24T13:43:41Z
2019-12-24T11:46:13Z,42.805,6.029,13.2982,4.59994,2469.97,2019-12-24T13:46:44Z
2019-12-24T11:49:17Z,42.805,6.029,13.2984,4.60022,2469.96,2019-12-24T13:49:47Z
2019-12-24T11:52:20Z,42.805,6.029,13.2980,4.60024,2469.984,2019-12-24T13:52:51Z
2019-12-24T11:55:23Z,42.805,6.029,13.2972,4.60032,2469.984,2019-12-24T13:55:54Z
2019-12-24T11:58:26Z,42.805,6.029,13.2974,4.60031,2469.984,2019-12-24T13:58:57Z
2019-12-24T12:01:29Z,42.805,6.029,13.2986,4.60033,2469.947,2019-12-24T14:02:00Z
2019-12-24T12:04:33Z,42.805,6.029,13.2982,4.60037,2469.97,2019-12-24T14:05:03Z
2019-12-24T12:07:36Z,42.805,6.029,13.2978,4.60030,2469.947,2019-12-24T14:08:07Z
2019-12-24T12:10:39Z,42.805,6.029,13.2967,4.59986,2469.97,2019-12-24T14:11:10Z
2019-12-24T12:13:42Z,42.805,6.029,13.2972,4.59992,2469.937,2019-12-24T14:14:13Z
2019-12-24T12:16:46Z,42.805,6.029,13.2969,4.59991,2469.97,2019-12-24T14:17:16Z
2019-12-24T12:19:49Z,42.805,6.029,13.2973,4.59999,2469.984,2019-12-24T14:20:20Z
2019-12-24T12:22:52Z,42.805,6.029,13.2976,4.60019,2469.96,2019-12-24T14:23:23Z
2019-12-24T12:25:55Z,42.805,6.029,13.2968,4.60014,2469.937,2019-12-24T14:26:26Z
2019-12-24T12:28:58Z,42.805,6.029,13.2965,4.60007,2469.947,2019-12-24T14:29:29Z
2019-12-24T12:32:02Z,42.805,6.029,13.2976,4.60045,2469.947,2019-12-24T14:32:32Z
2019-12-24T12:35:05Z,42.805,6.029,13.2986,4.60030,2469.923,2019-12-24T14:35:36Z
2019-12-24T12:38:08Z,42.805,6.029,13.3009,4.60053,2469.947,2019-12-24T14:38:39Z
2019-12-24T12:41:11Z,42.805,6.029,13.2987,4.60036,2469.947,2019-12-24T14:41:42Z
2019-12-24T12:44:14Z,42.805,6.029,13.2978,4.60062,2469.947,2019-12-24T14:44:45Z
2019-12-24T12:47:18Z,42.805,6.029,13.2988,4.60036,2469.923,2019-12-24T14:47:48Z
2019-12-24T12:50:21Z,42.805,6.029,13.2988,4.60031,2469.96,2019-12-24T14:50:52Z
2019-12-24T12:53:24Z,42.805,6.029,13.2968,4.60016,2469.96,2019-12-24T14:53:55Z
2019-12-24T12:56:27Z,42.805,6.029,13.2991,4.60021,2469.923,2019-12-24T14:56:58Z
2019-12-24T12:59:30Z,42.805,6.029,13.2982,4.60017,2469.947,2019-12-24T15:00:01Z
2019-12-24T13:02:34Z,42.805,6.029,13.2990,4.60019,2469.947,2019-12-24T15:03:04Z
2019-12-24T13:05:37Z,42.805,6.029,13.2981,4.60024,2469.947,2019-12-24T15:06:08Z
2019-12-24T13:08:40Z,42.805,6.029,13.2971,4.60033,2469.984,2019-12-24T15:09:11Z
2019-12-24T13:11:43Z,42.805,6.029,13.2971,4.59981,2469.947,2019-12-24T15:12:14Z
2019-12-24T13:14:46Z,42.805,6.029,13.2971,4.59997,2469.937,2019-12-24T15:15:17Z
2019-12-24T13:17:50Z,42.805,6.029,13.2976,4.60023,2469.947,2019-12-24T15:18:20Z
2019-12-24T13:20:53Z,42.805,6.029,13.2971,4.60017,2469.947,2019-12-24T15:21:24Z
2019-12-24T13:23:56Z,42.805,6.029,13.2979,4.60006,2469.96,2019-12-24T15:24:27Z
2019-12-24T13:26:59Z,42.805,6.029,13.2973,4.60016,2469.96,2019-12-24T15:27:30Z
2019-12-24T13:30:03Z,42.805,6.029,13.2975,4.60039,2469.96,2019-12-24T15:30:34Z
2019-12-24T13:33:06Z,42.805,6.029,13.2984,4.60031,2469.984,2019-12-24T15:33:37Z
2019-12-24T13:36:09Z,42.805,6.029,13.2993,4.60026,2469.96,2019-12-24T15:36:40Z
2019-12-24T13:39:12Z,42.805,6.029,13.2977,4.60003,2469.97,2019-12-24T15:39:43Z
2019-12-24T13:42:16Z,42.805,6.029,13.2985,4.60034,2469.993,2019-12-24T15:42:46Z
2019-12-24T13:45:19Z,42.805,6.029,13.2972,4.60007,2469.947,2019-12-24T15:45:50Z
2019-12-24T13:48:22Z,42.805,6.029,13.2975,4.60053,2469.97,2019-12-24T15:48:53Z
2019-12-24T13:51:25Z,42.805,6.029,13.2987,4.60022,2469.984,2019-12-24T15:51:56Z
2019-12-24T13:54:29Z,42.805,6.029,13.2970,4.60033,2469.984,2019-12-24T15:54:59Z
2019-12-24T13:57:32Z,42.805,6.029,13.2975,4.60018,2469.923,2019-12-24T15:58:03Z
2019-12-24T14:00:35Z,42.805,6.029,13.2968,4.60016,2469.96,2019-12-24T16:01:06Z
2019-12-24T14:03:38Z,42.805,6.029,13.2978,4.60033,2469.993,2019-12-24T16:04:09Z
2019-12-24T14:06:41Z,42.805,6.029,13.2982,4.60014,2469.97,2019-12-24T16:07:12Z
2019-12-24T14:09:45Z,42.805,6.029,13.2974,4.60017,2469.984,2019-12-24T16:10:15Z
2019-12-24T14:12:48Z,42.805,6.029,13.2976,4.60016,2469.97,2019-12-24T16:13:19Z
2019-12-24T14:15:51Z,42.805,6.029,13.2993,4.60021,2469.984,2019-12-24T16:16:22Z
2019-12-24T14:18:54Z,42.805,6.029,13.2981,4.60033,2470.007,2019-12-24T16:19:25Z
2019-12-24T14:21:58Z,42.805,6.029,13.2982,4.60012,2469.993,2019-12-24T16:22:28Z
2019-12-24T14:25:01Z,42.805,6.029,13.2990,4.60017,2470.007,2019-12-24T16:25:32Z
2019-12-24T14:28:04Z,42.805,6.029,13.2984,4.60069,2469.97,2019-12-24T16:28:35Z
2019-12-24T14:31:07Z,42.805,6.029,13.2991,4.60052,2470.007,2019-12-24T16:31:38Z
2019-12-24T14:34:11Z,42.805,6.029,13.2975,4.60039,2469.993,2019-12-24T16:34:41Z
2019-12-24T14:37:14Z,42.805,6.029,13.2973,4.60021,2469.993,2019-12-24T16:37:45Z
2019-12-24T14:40:17Z,42.805,6.029,13.2980,4.60036,2469.993,2019-12-24T16:40:48Z
2019-12-24T14:43:20Z,42.805,6.029,13.3000,4.60025,2469.993,2019-12-24T16:43:51Z
2019-12-24T14:46:23Z,42.805,6.029,13.2989,4.60019,2470.007,2019-12-24T16:46:54Z
2019-12-24T14:49:27Z,42.805,6.029,13.2993,4.60033,2470.017,2019-12-24T16:49:57Z
2019-12-24T14:52:30Z,42.805,6.029,13.2968,4.60021,2469.97,2019-12-24T16:53:01Z
2019-12-24T14:55:33Z,42.805,6.029,13.2971,4.60046,2470.017,2019-12-24T16:56:04Z
2019-12-24T14:58:36Z,42.805,6.029,13.2976,4.60033,2469.993,2019-12-24T16:59:07Z
2019-12-24T15:01:39Z,42.805,6.029,13.2976,4.60033,2470.03,2019-12-24T17:02:10Z